Regional Weather Roundup
Issued by NWS Newport/Morehead, NC

Current Version | Previous Version | Text Only | Print | Product List | Glossary On
Versions: 1 2 3 4 5 6 7 8 9 10 11 12 13 14 15 16 17 18 19 20 21 22 23 24 25 26 27 28 29 30 31 32 33 34 35 36 37 38 39 40 41 42 43 44 45 46 47 48 49 50
000 ASUS42 KMHX 202010 RWRMHX WEATHER ROUNDUP FOR EASTERN NORTH CAROLINA NATIONAL WEATHER SERVICE NEWPORT/MOREHEAD CITY NC 400 PM EDT WED AUG 20 2014 NOTE: "FAIR" INDICATES FEW OR NO CLOUDS BELOW 12,000 FEET WITH NO SIGNIFICANT WEATHER AND/OR OBSTRUCTIONS TO VISIBILITY NCZ015>017-031-032-045>047-102-103-202100- NORTH COAST CITY SKY/WX TMP DP RH WIND PRES REMARKS EDENTON MOSUNNY 84 73 68 SE6 29.95S ELIZABETH CITY SUNNY 84 70 62 E6 29.96S KITTY HAWK PTCLDY 81 72 74 NE5 29.96R MANTEO MOSUNNY 81 72 74 NE8 29.97R $$ NCZ045>047-081-094-103-104-202100- CENTRAL COAST CITY SKY/WX TMP DP RH WIND PRES REMARKS FRISCO PTSUNNY 81 73 76 VRB5 29.97R SWANQUARTER N/A 82 N/A N/A SE7 29.94S $$ NCZ095-097-098-100-101-202100- SOUTHERN COAST CITY SKY/WX TMP DP RH WIND PRES REMARKS BEAUFORT SUNNY 85 75 72 SW10 29.96S CEDAR ISLAND N/A 84 N/A N/A E6 30.00S JACKSONVILLE PTSUNNY 83 75 77 S10 29.96S NEWPORT NOT AVBL PINEY ISLAND PTCLDY 85 75 72 E7 29.96S WILMINGTON CLOUDY 78 73 84 W7 29.99R $$ NCZ011>013-027>030-043-044-078>080-089-090>093-098-202100- COASTAL PLAIN CITY SKY/WX TMP DP RH WIND PRES REMARKS AHOSKIE PTSUNNY 81 73 76 CALM 29.96S CLINTON MOSUNNY 87 76 68 CALM 29.97R ELIZABETHTOWN PTSUNNY 86 71 60 S3 29.97S GOLDSBORO PTSUNNY 87 76 68 E2 29.95R GREENVILLE MOSUNNY 88 70 55 NW6 29.98S HAVELOCK PTSUNNY 87 72 60 E3 29.96F KENANSVILLE PTSUNNY 87 69 54 CALM 29.97R KINSTON PTSUNNY 88 72 58 CALM 29.97S NEW BERN SUNNY 89 71 55 CALM 29.96F RICHLANDS PTSUNNY 88 72 58 CALM 29.96R ROANOKE RAPIDS NOT AVBL ROCKY MOUNT SUNNY 87 70 56 CALM 29.96F WASHINGTON SUNNY 86 71 60 NW3 29.95F WHITEVILLE MOSUNNY 82 75 79 CALM 29.96F $$ AMZ130-135-150-152-154-156-158-170-250-252-270-ANZ085-086-088-633-658-670-202100- MARINE OBSERVATIONS STATION/POSITION TIME TEMP WIND PRES WAVE SWELL AIR SEA DIR/SP/G HT/PER HT/PER (UTC) (F) (DEG/KT/KT) (MB) (FT/S) (FT/S) CHESAPEAKE LIGHT 1900 75 60/ 9/ 10 1015.4 BUOY 44014 2000 78 79 40/ 8/ 10 1014.1 3/ 5 3/ 5 DUCK 2000 77 79 40/ 9/ 10 1014.0 2E DUCK 2000 N/A 3/ 5 OREGON INLET 2000 80 81 30/ 8/ 11 1014.6 BUOY 44095 2000 80 N/A 3/ 6 20E OREGON INLET NOT AVBL HATTERAS CG 2000 82 83 40/ 4/ 7 1015.2 DIAMOND BUOY 2000 78 320/ 6/ 8 1014.7 2/ 8 2/ 8 CAPE LOOKOUT 1900 82 170/ 8/ 9 1014.8 BEAUFORT LAB 2000 83 82 210/ 8/ 12 1014.2 30 SE NEW RIVER 2000 81 87 180/ 4/ 6 1014.4 3/ 6 3/ 6 5 SE WRIGHTSVILL 1900 78 83 190/ 10/ 12 N/A BUOY 41002 1902 78 81 250/ 12/ 17 1016.9 5/ 7 3/ 7 BUOY 41004 2000 83 84 220/ 14/ 14 1014.5 3/ 6 2/ 8 $$

USA.gov is the U.S. government's official web portal to all federal, state and local government web resources and services.